Location: Arrien
(42.8963°N, 1.0429°E)
Time: 02:25:09
(UTC+00:00)

SMAP - Pass Details

Date: 11 December 2025
Orbit: 681 x 683 km, 98.1° (Epoch: 17 January)

Event Time Altitude Azimuth Distance (km) Brightness Sun altitude
Rises 17:35:38 0° 175° (S) 3,031 6.6 -13.1°
Reaches altitude 10° 17:37:53 10° 179° (S) 2,120 5.8 -13.5°
Maximum altitude 17:42:28 60° 259° (W) 787 3.7 -14.3°
Drops below altitude 10° 17:47:05 10° 340° (NNW) 2,136 5.6 -15.1°
Sets 17:49:22 0° 344° (NNW) 3,056 6.4 -15.5°
